Location: Sternwarte Stuttgart
(48.7670°N, 9.1830°E)
Time: 13:58:33
(UTC+02:00)

ISS - All Passes

Search period start: 26 August 2016 00:00
Search period end: 05 September 2016 00:00
Orbit: 402 x 406 km, 51.6° (Epoch: 26 August)

Date Brightness Start Highest point End Pass type
(mag) Time Alt. Az. Time Alt. Az. Time Alt. Az.
26 Aug - 10:02:38 10° S 10:04:58 18° SE 10:07:18 10° E daylight
26 Aug - 11:37:46 10° WSW 11:41:03 82° SSE 11:44:21 10° ENE daylight
26 Aug - 13:14:28 10° W 13:17:41 49° N 13:20:55 10° ENE daylight
26 Aug - 14:51:06 10° WNW 14:54:25 73° NNE 14:57:42 10° ESE daylight
26 Aug - 16:27:48 10° W 16:30:42 28° SW 16:33:34 10° SSE daylight
27 Aug - 09:11:55 10° SSE 09:12:47 11° SE 09:13:41 10° ESE daylight
27 Aug - 10:45:27 10° SW 10:48:40 54° SSE 10:51:54 10° ENE daylight
27 Aug - 12:21:56 10° W 12:25:11 54° N 12:28:26 10° ENE daylight
27 Aug - 13:58:40 10° WNW 14:01:56 57° NNE 14:05:11 10° E daylight
27 Aug - 15:35:13 10° WNW 15:38:24 45° SSW 15:41:33 10° SE daylight
28 Aug - 09:53:19 10° SSW 09:56:19 34° SSE 09:59:21 10° E daylight
28 Aug - 11:29:24 10° W 11:32:41 66° NNW 11:35:58 10° ENE daylight
28 Aug - 13:06:11 10° WNW 13:09:25 50° N 13:12:38 10° E daylight
28 Aug - 14:42:43 10° WNW 14:46:01 71° SSW 14:49:17 10° ESE daylight
28 Aug - 16:20:02 10° W 16:22:01 15° SW 16:24:00 10° S daylight
29 Aug - 09:01:29 10° SSW 09:04:03 21° SE 09:06:37 10° E daylight
29 Aug - 10:36:54 10° WSW 10:40:12 88° NNW 10:43:31 10° ENE daylight
29 Aug - 12:13:39 10° WNW 12:16:52 48° N 12:20:05 10° ENE daylight
29 Aug - 13:50:15 10° WNW 13:53:33 81° NNE 13:56:51 10° ESE daylight
29 Aug - 15:27:02 10° W 15:29:47 24° SW 15:32:30 10° SSE daylight
30 Aug - 08:10:13 10° SSE 08:11:49 13° SE 08:13:25 10° ESE daylight
30 Aug - 09:44:30 10° SW 09:47:45 63° SSE 09:51:01 10° ENE daylight
30 Aug - 11:21:05 10° W 11:24:19 52° N 11:27:33 10° ENE daylight
30 Aug - 12:57:47 10° WNW 13:01:03 62° NNE 13:04:19 10° E daylight
30 Aug - 14:34:21 10° WNW 14:37:27 39° SSW 14:40:33 10° SE daylight
31 Aug - 08:52:16 10° SW 08:55:22 39° SSE 08:58:28 10° ENE daylight
31 Aug - 10:28:30 10° W 10:31:46 61° NNW 10:35:02 10° ENE daylight
31 Aug - 12:05:16 10° WNW 12:08:31 52° N 12:11:44 10° E daylight
31 Aug - 13:41:48 10° WNW 13:45:04 62° SSW 13:48:19 10° SE daylight
31 Aug - 15:19:28 10° WSW 15:21:00 13° SW 15:22:31 10° SSW daylight
01 Sep - 08:00:16 10° SSW 08:03:01 25° SE 08:05:46 10° E daylight
01 Sep - 09:35:57 10° WSW 09:39:15 80° NNW 09:42:32 10° ENE daylight
01 Sep - 11:12:43 10° WNW 11:15:55 48° N 11:19:08 10° ENE daylight
01 Sep - 12:49:17 10° WNW 12:52:36 89° NE 12:55:54 10° ESE daylight
01 Sep - 14:26:12 10° W 14:28:44 21° SW 14:31:17 10° SSE daylight
02 Sep - 07:08:43 10° S 07:10:44 15° SE 07:12:45 10° E daylight
02 Sep - 08:43:28 10° WSW 08:46:44 72° SSE 08:50:02 10° ENE daylight
02 Sep - 10:20:07 10° W 10:23:20 50° N 10:26:34 10° ENE daylight
02 Sep - 11:56:47 10° WNW 12:00:04 67° NNE 12:03:21 10° E daylight
02 Sep - 13:33:24 10° W 13:36:24 33° SW 13:39:24 10° SSE daylight
03 Sep - 07:51:07 10° SW 07:54:17 46° SSE 07:57:28 10° ENE daylight
03 Sep - 09:27:30 10° W 09:30:45 57° N 09:34:00 10° ENE daylight
03 Sep - 11:04:15 10° WNW 11:07:30 54° N 11:10:44 10° E daylight
03 Sep - 12:40:46 10° WNW 12:44:00 53° SSW 12:47:13 10° SE daylight
03 Sep - 14:19:05 10° WSW 14:19:51 11° SW 14:20:38 10° SSW daylight
04 Sep - 06:59:00 10° SSW 07:01:53 29° SE 07:04:47 10° E daylight
04 Sep - 08:34:53 10° WSW 08:38:11 72° NNW 08:41:28 10° ENE daylight
04 Sep - 10:11:40 10° WNW 10:14:53 49° N 10:18:06 10° E daylight
04 Sep - 11:48:13 10° WNW 11:51:31 82° SSW 11:54:48 10° ESE daylight
04 Sep - 13:25:17 10° W 13:27:35 18° SW 13:29:54 10° S daylight
